www.pogodaiklimat.ru
Время
и дата
07:56 19.07
08:56 19.07
09:56 19.07
10:56 19.07
11:56 19.07
12:56 19.07
13:56 19.07
14:56 19.07
15:56 19.07
16:56 19.07
17:56 19.07
18:56 19.07
19:56 19.07
20:56 19.07
21:56 19.07
22:56 19.07
23:56 19.07
00:56 20.07
01:56 20.07
02:56 20.07
03:56 20.07
04:56 20.07
05:56 20.07
06:56 20.07
07:56 20.07
08:56 20.07
09:56 20.07
10:56 20.07
11:56 20.07
12:56 20.07
13:56 20.07
14:56 20.07
15:56 20.07
16:56 20.07
17:56 20.07
18:56 20.07
19:56 20.07
20:56 20.07
21:56 20.07
22:56 20.07
23:56 20.07
00:56 21.07
01:56 21.07
02:56 21.07
03:56 21.07
04:56 21.07
05:56 21.07
06:56 21.07
Ветер
(напр.,м/с)
Видим. Явления Облачность Т
(С)
Тd
(С)
f
(%)
Тe
(С)
Тes
(С)
Комфортность P
(гПа)
Po
(гПа)
Тmin
(С)
Tmax
(С)
R
(мм)
R24
(мм)
S
(см)
штиль 0 16 км ясно +23.9 +11.1 45 +25 +30 комфорт 1016.4 995.3
СЗ 2 16 км ясно +28.3 +9.4 31 +28 +35 жарко 1015.8 994.9
СЗ 2 16 км ясно +33.3 +8.9 22 +32 +43 жарко 1015.2 994.3 +14.4 +33.3
нст 2 16 км ясно +36.1 +8.9 19 +34 +50 очень
жарко
1014.7 993.6
СЗ 7
{10}
16 км ясно +38.9 +3.9 12 +36 +41 очень
жарко
1014.3 993.3
СЗ 9
{13}
16 км ясно +38.3 +3.9 12 +35 +37 очень
жарко
1014.0 992.9
СЗ 8
{12}
16 км ясно +38.3 +3.9 12 +35 +39 очень
жарко
1013.7 992.6
СЗ 6
{10}
16 км ясно +38.3 +3.3 11 +35 +42 очень
жарко
1013.3 992.3
СЗ 4
{9}
16 км ясно +37.8 +4.4 13 +35 +44 очень
жарко
1013.0 992.0 +32.8 +38.9
СЗ 5
{10}
16 км ясно +36.7 +5.0 14 +34 +38 очень
жарко
1012.6 991.6
З 4
{8}
16 км ясно +35.0 +7.8 19 +33 +36 жарко 1012.6 991.6
С 3 16 км ясно +32.8 +7.8 21 +31 +33 жарко 1012.7 991.6
СВ 3 16 км ясно +31.7 +6.1 20 +30 +30 жарко 1012.8 992.0
ЮВ 2 16 км ясно +26.7 +8.3 31 +27 +27 жарко 1013.4 992.6
штиль 0 16 км ясно +25.6 +8.3 33 +26 +26 жарко 1013.6 992.6 +25.6 +37.8
штиль 0 16 км ясно +22.8 +8.3 39 +24 +24 комфорт 1013.6 992.6
С 2 16 км ясно +23.3 +8.9 40 +25 +25 комфорт 1013.4 992.6
СЗ 2 16 км ясно +23.3 +8.9 40 +25 +25 комфорт 1013.1 992.3
штиль 0 16 км ясно +22.2 +9.4 44 +24 +24 комфорт 1012.9 992.0
штиль 0 16 км ясно +20.0 +10.6 55 +21 +21 комфорт 1013.1 992.3
штиль 0 16 км ясно +21.1 +10.0 49 +23 +23 комфорт 1013.2 992.3 +19.4 +25.6
СЗ 2 16 км ясно +20.6 +10.0 51 +23 +23 комфорт 1013.3 992.3
С 2 16 км ясно +21.1 +10.0 49 +23 +23 комфорт 1013.6 992.6
С 2 16 км ясно +23.3 +11.1 46 +26 +26 жарко 1014.0 992.9
нст 2 16 км ясно +26.1 +11.1 39 +27 +30 жарко 1014.1 993.3
СВ 2 16 км ясно +28.3 +11.7 36 +29 +36 жарко 1013.8 992.9
С 5 16 км ясно +31.1 +10.0 27 +31 +37 жарко 1013.4 992.3 +20.0 +31.1
С 5
{9}
16 км ясно +32.8 +11.1 27 +33 +41 жарко 1013.2 992.3
С 5 16 км ясно +33.3 +11.7 27 +33 +43 жарко 1012.9 992.0
С 5 16 км ясно +34.4 +12.2 26 +34 +45 очень
жарко
1012.6 991.6
С 6
{10}
16 км ясно +33.9 +12.2 27 +34 +42 очень
жарко
1012.5 991.6
С 6
{10}
16 км ясно +33.9 +12.2 27 +34 +41 очень
жарко
1012.3 991.3
С 7
{11}
16 км ясно +32.8 +12.8 30 +33 +37 жарко 1012.1 991.3 +30.6 +35.0
С 6
{14}
16 км ясно +31.1 +12.8 33 +32 +35 жарко 1012.2 991.3
С 5 16 км ясно +30.6 +12.2 32 +31 +34 жарко 1012.6 991.6
С 4 16 км ясно +29.4 +11.7 34 +30 +31 жарко 1012.6 991.6
СВ 3 16 км ясно +27.2 +12.2 39 +28 +29 жарко 1012.7 991.6
СВ 2 16 км ясно +25.6 +11.7 42 +27 +27 жарко 1013.0 992.0
СВ 2 16 км ясно +23.9 +11.7 46 +25 +25 комфорт 1013.0 992.0 +23.9 +32.8
СЗ 2 16 км ясно +22.8 +11.7 50 +25 +25 комфорт 1013.1 992.3
Ю 2 16 км ясно +21.1 +11.1 53 +23 +23 комфорт 1012.9 992.0
СВ 3 16 км ясно +21.7 +10.6 49 +23 +23 комфорт 1012.4 991.6
штиль 0 16 км ясно +20.6 +11.1 54 +22 +22 комфорт 1012.5 991.6
СЗ 2 16 км ясно +20.6 +10.6 53 +23 +23 комфорт 1012.3 991.3
СЗ 2 16 км ясно +19.4 +11.1 59 +21 +21 комфорт 1012.4 991.3 +19.4 +23.9
штиль 0 16 км ясно +18.3 +11.1 63 +19 +19 1012.8 991.6
нст 2 16 км ясно +18.9 +11.7 63 +20 +20 1013.0 992.0
СВ 2 16 км ясно +20.6 +12.2 59 +23 +24 комфорт 1013.2 992.3
Местоположение метеостанции Ukiah Municipal Airport: широта 39.1258 долгота -123.2008 высота над уровнем моря 183 м.
В архиве по умолчанию представлена погода в Юкайе за последние 1-2 суток. Обновление информации о фактической погоде в базе происходит ежечасно! Архивные данные за месяц целиком и за предыдущие месяцы Вы можете получить, выбрав интересующий диапазон дат из раскрывающегося списка и нажав кнопку "Ввод!".
Внимание! Архив погоды МЕТАР в базе сайта по станциям, не включенным в климатический монитор, хранится не более 60 дней. Нет смысла пытаться выбрать более раннюю дату.
*Определитесь, кто Вы:
Внимание! Время в таблицах - местное (без учета летнего времени). Для получения всемирного времени необходимо вычесть поправку, которая равна -8 ч.
Смотрите также архив погоды в соседних городах и на ближайших метеорологических станциях:
Партнеры нашего сайта:      
Пояснения к столбцам:
  • Ветер - указаны скорость ветра в м/с - средняя за 10 мин, порывы в срок и между сроками (в фигурных скобках) и направление, откуда дует ветер: С - северный,
  • СВ - северо-восточный, В - восточный, ЮВ - юго-восточный, Ю - южный, ЮЗ - юго-западный, З - западный, СЗ - северо-западный.
  • Видимость - горизонтальная дальность видимости в метрах или километрах. При видимости от 1 до 10 км при отсутствии осадков обычно наблюдается дымка, при ухудшении видимости до 1 км и менее - туман. В сухую погоду видимость может ухудшаться дымом, пылью или мглою.
  • Явления - указаны атмосферные явления, наблюдавшиеся в срок или в последний час перед сроком; фигурными скобками обозначены явления, наблюдавшиеся между сроками (за 1-3 часа до срока); квадратными скобками обозначены град или гололедные отложения с указанием их диаметра в мм.
  • Облачность - указаны через наклонную черту общая и нижняя облачность в баллах и высота нижней границы облаков в метрах; квадратными скобками обозначены формы облаков: Ci - перистые, Cs - перисто-слоистые, Cc - перисто-кучевые, Ac - высококучевые, As - высокослоистые, Sc - слоисто-кучевые, Ns - слоисто-дождевые, Cu - кучевые, Cb - кучево-дождевые. Подробнее классификацию облаков см. в Атласе облаков (PDF).
  • T - Температура воздуха - температура, измеренная на высоте 2 м над землей.
  • Td - Температура точки росы - температура, при понижении до которой содержащийся в воздухе водяной пар достигнет насыщения.
  • f - Относительная влажность воздуха - влажноcть воздуха, измеренная на высоте 2 м над землей.
  • Te - Эффективная температура - температура, которую ощущает одетый по сезону человек в тени. Характеристика душности погоды. При расчете учитывается влияние влажности воздуха и скорости ветра на теплоощущения человека.
  • Tes - Эффективная температура на солнце - температура, которую ощущает человек, с поправкой на солнечный нагрев. Характеристика знойности погоды. Зависит от высоты солнца над горизонтом, облачности и скорости ветра. Ночью, в пасмурную погоду, а также при ветре 12 м/с и более поправка равна нулю.
  • P - Атмосферное давление - приведенное к уровню моря атмосферное давление.
  • Po - Атмосферное давление - измеренное на уровне метеостанции атмосферное давление.
  • Tmin - Минимальная температура - минимум температуры воздуха на высоте 2 м над землей.
  • Tmax - Максимальная температура - максимум температуры воздуха на высоте 2 м над землей.
  • R - Количество осадков - Количество выпавших осадков за период времени, мм. При наведении курсора мыши на число - период времени, за который выпало указанное количество осадков.
  • R24 - Количество осадков - Количество выпавших осадков за 24 часа, мм.
  • S - Снежный покров - Высота снежного покрова, см. При наведении курсора мыши на число - состояние снежного покрова и степень покрытия местности в баллах.